Brutally Hot Humid Severe Weather

Brutally Hot Humid Severe Weather

Brutally Hot Humid Severe Weather

Brutally Hot Humid Severe Weather

No question that we are experiencing brutally hot and humid conditions and this will once again trigger off some thunderstorms late this afternoon and evening. The Storm Prediction Center has expanded the area of marginal risk of severe to include all of Pennsylvania, Northwestern third of New Jersey allow New York State except for the immediate coast and much of Western New England including Connecticut.

storm free

Im not expecting any sort of organized line of storms. Rather there will be pop up thunderstorms and like yesterday it is quite possible that a few of them could become severe. The main threat time will probably be after 3pm until around 8pm. 

Brutally Hot Humid Severe Weather 12 NOON Temperatures

CITY           SKY/WX    TMP DP  RH WIND       PRES   REMARKS
Central Park   SUNNY     92  76  59 SW5       29.94S HX 104
LaGuardia APRT MOSUNNY   95  76  53 SW8       29.90S HX 108
Kennedy INTL   MOSUNNY   90  77  65 S8        29.92S HX 103
Newark Liberty MOSUNNY   93  76  57 S6        29.90F HX 105
Teterboro APRT SUNNY     93  73  52 S5        29.89F HX 102
Bronx Bot Gard   N/A     93  73  52 W10       29.93R HX 102
Wall St Helipt SUNNY    N/A N/A N/A W3        29.91F

Temperatures at midday have already hit the middle 90s in and around New York City. Heat indices are already well over 100 with the humidity so high. Dew points are in the middle 70s which is like it is in Florida. 

NYZ177-179-078>081-131700-
LONG ISLAND NEW YORK

CITY           SKY/WX    TMP DP  RH WIND       PRES   REMARKS
Farmingdale    SUNNY     91  78  65 S10       29.92S HX 106
MacArthur/ISP  MOSUNNY   91  78  65 S12       29.91F HX 106
Shirley        SUNNY     89  78  70 S10       29.93S HX 103
Riverhead      NOT AVBL
Westhampton    SUNNY     86  76  71 SW9       29.94S HX  96
Southampton      N/A     82  77  83 SW8       29.89S HX  91
Bridgehampton  NOT AVBL
East Hampton   FAIR      85  77  77 S8        29.92S HX  96
Montauk          N/A     86  78  77 CALM      29.93S HX  98
$$

NYZ052-065-067-131700-
HUDSON VALLEY

CITY           SKY/WX    TMP DP  RH WIND       PRES   REMARKS
White Plains   MOSUNNY   92  73  53 VRB5      29.92F HX 100
Newburgh       MOSUNNY   90  79  70 W8        29.94S HX 105
Montgomery     SUNNY     90  78  68 S7        29.91S HX 104
Poughkeepsie   SUNNY     91  75  59 VRB6      29.89F HX 101
Albany         MOSUNNY   88  76  67 S7        29.88F HX  99
$$

NJZ001-105-106-008-010-013-015-019>022-104-131700-
NEW JERSEY

CITY           SKY/WX    TMP DP  RH WIND       PRES   REMARKS
Newark/Liberty MOSUNNY   93  76  57 S6        29.90F HX 105
Teterboro      SUNNY     93  73  52 S5        29.89F HX 102
Caldwell       MOSUNNY   92  75  57 VRB5      29.91F HX 103
Morristown     MOSUNNY   91  77  62 SW6       29.92F HX 105
Somerville     MOSUNNY   90  79  70 VRB3      29.90F HX 106
Linden         FAIR      92  75  57 CALM      29.93S HX 104
Sussex         SUNNY     90  77  65 SW6       29.92F HX 103
Abdover          N/A     89  76  65 S6        29.94S HX 100
Trenton        SUNNY     92  77  61 W5        29.92F HX 105
Millville      SUNNY     92  79  65 SW7       29.94F HX 108
Atlantic City  SUNNY     93  76  57 SW12      29.93F HX 105
Wrightstown    SUNNY     92  79  66 SW9       29.90F HX 109
Toms River     MOSUNNY   96  79  57 VRB5      29.93F HX 114
Belmar         SUNNY     93  78  61 SW8       29.94S HX 108
$$

PAZ047>061-062-071-131700-
EASTERN PENNSYLVANIA

CITY           SKY/WX    TMP DP  RH WIND       PRES   REMARKS
Philadelphia   MOSUNNY   92  77  61 SW7       29.92F HX 105
Allentown      SUNNY     92  76  59 SW5       29.93S HX 104
Scranton       SUNNY     90  75  61 SW8G16    29.94F HX 100
$$

CTZ002-004>006-009-010-012-RIZ004-006-007-MAZ004-011-015-131700-
SOUTHERN NEW ENGLAND
 IN CT

CITY           SKY/WX    TMP DP  RH WIND       PRES   REMARKS
Bradley INTL   MOSUNNY   91  75  59 VRB5      29.90F HX 101
Hartford       SUNNY     93  78  61 VRB5      29.89F HX 108
Danbury        SUNNY     90  75  61 S6        29.93F HX 100
Wtrbury/Oxford MOSUNNY   90  73  58 VRB5      29.97S HX  98
Bridgeport     SUNNY     90  76  63 SW10      29.91S HX 101
Meriden        SUNNY     93  76  57 VRB5      29.90F HX 105
New Haven      MOSUNNY   88  77  69 SW10      29.91S HX 100
Chester        FAIR      90  77  66 VRB5      29.93S HX 102
Groton         SUNNY     86  78  77 S9        29.91S HX  98
Wilimantic     SUNNY     92  77  61 W5        29.91F HX 105

 IN RI

CITY           SKY/WX    TMP DP  RH WIND       PRES   REMARKS
Providence     PTSUNNY   86  76  71 E5        29.93S HX  96
Block Island   SUNNY     84  76  76 SW12      29.94S HX  93
Westerly       SUNNY     87  75  67 W9        29.92F HX  96
 IN MA

CITY           SKY/WX    TMP DP  RH WIND       PRES   REMARKS
Boston         CLOUDY    71  65  81 E13       29.97S
Worchester     CLOUDY    76  68  76 VRB5      29.98S
Westfield      MOSUNNY   89  76  65 VRB5      29.90F HX 100
Provincetown   CLOUDY    73  68  84 NE6       29.96S
Nantucket      PTSUNNY   80  75  84 SW10      29.94S
$$

ANZ330-335-338-340-345-350-353-355-131700-
COASTAL MARINE OBSERVATIONS


STATION/POSITION TIME  SKY/WX   TEMP    WIND        PRES    VSBY  WAVE
                                AIR SEA DIR/SP/G                  HT/PER
                 (UTC)          (F)     (DEG/KT/KT) (MB)    (MI)  (FT/S)
NY HARB ENTRANCE 1450            78 77  190/  8/  8 1013.2          2/ 6
20S FIRE ISLAND  1450            78 77  210/ 10/ 12 1013.3          3/ 6
GREAT SOUTH BAY  1515            80 82  230/ 12/ 14   N/A
23 SSW MONTAUK P 1450            77 74  220/ 12/ 12 1013.8          3/ 6
15 E BARNEGAT LI 1500               78                N/A           3/ 6
HUDSON CANYON    1450            80 78              1014.7          4/ 6
KINGS POINT      1500            88 75              1012.8
EXECUTION ROCKS  1500            88     210/  2/  2   N/A
CENTRAL LI SOUND 1500            81 78  230/  6/  8   N/A           1
EASTERN LI SOUND 1500            79 72  190/  2/  4   N/A
ROBBINS REEF     1500            86     150/  6/  7 1012.4
$$

Radars are busy well to the north where the warm front is set up. As of midday there isn’t much going on around here so I think we will be okay for the next few hours at least. Given that the south wind has kicked in, it might keep most of the thunderstorm activity north and west of the coast.

storm free

storm free
storm free

storm free

Brutally Hot Humid Severe Weather

Sunday Outlook

We will do this one more time on Sunday and again it will be brutally hot and humid with the chance for late day thunderstorms. A break is coming Monday into Tuesday with slightly lower temperatures and slightly lower humidity but it will be very warm and somewhat humid to start the new week.

FiOS1 News Weather Forecast For Long Island

FiOS1 News Weather Forecast For New Jersey

FiOS1 News Weather Forecast For Hudson Valley

NATIONAL WEATHER SERVICE SNOW FORECASTS

JOIN JOESTRADAMUS ON YOUTUBE!

LATEST JOESTRADAMUS ON THE LONG RANGE

LONG ISLAND WEATHER

NEW YORK WEATHER

 

Weather App

storm free

Don’t be without Meteorologist Joe Cioffi’s weather app. It is really a meteorologist app because you get my forecasts and my analysis and not some automated computer generated forecast based on the GFS model. This is why your app forecast changes every 6 hours. It is model driven with no human input at all. It gives you an icon, a temperature and no insight whatsoever.

It is a complete weather app to suit your forecast needs. All the weather information you need is right on your phone. Android or I-phone, use it to keep track of all the latest weather information and forecasts. This weather app is also free of advertising so you don’t have to worry about security issues with your device. An accurate forecast and no worries that your device is being compromised.

Use it in conjunction with my website and my facebook and twitter and you have complete weather coverage of all the latest weather and the long range outlook. The website has been redone and upgraded. Its easy to use and everything is archived so you can see how well Joe does or doesn’t do when it comes to forecasts and outlooks.

Just click on the google play button or the apple store button on the sidebar for my app which is on My Weather Concierge. Download the app for free. Subscribe to my forecasts on an ad free environment for just 99 cents a month.
Get my forecasts in the palm of your hand for less than the cost of a cup of Joe!

 

http://www.fragalalandscape.com/

MENTION JOE CIOFFI AND GET A 5% DISCOUNT

 

Liked it? Take a second to support joestradamus on Patreon!